Weather in Chardym

Russia / Saratov Oblast     51°47′10″N   46°20′01″E
temp.,
°C
wind,
m/s
gust,
m/s
humid.,
%
clouds,
%
prec.,
mm/h
press.,
hPa
HPBL,
m
28 february, sun
sun2801:00−13nw512860 0.0 1007499
04:00−14nw4138714 0.0 1010460
07:00−16nw48895 0.0 1012165
10:00−15nw510873 0.0 1013389
13:00−12nw58840 0.0 1014510
16:00−11nw49860 0.0 1014536
19:00−14nw34890 0.0 101649
22:00−15nw34916 0.0 101840
1 march, mon
mon101:00−16nw339054 0.0 101940
04:00−17nnw338975 0.0 102139
07:00−19nw339061 0.0 102329
10:00−16nw358931 0.0 1025143
13:00−12nw24860 0.0 1025258
16:00−10nw25880 0.0 1025333
19:00−14w23900 0.0 102521
22:00−15w23920 0.0 102521
2 march, tue
tue201:00−13wsw349238 0.0 102374
04:00−10sw4109469 0.0 1021272
07:00−5wsw61389100 0.0 1017498
10:00−2wsw71390100 0.4 1014713
13:000wsw71391100 0.2 1011827
16:00+1wsw61396100 0.3 1009737
19:00+1w61198100 0.3 1007460
22:00+1wnw3898100 0.4 1007331
3 march, wed
wed301:00−2nw3495100 0.2 1006119
04:00−4nw3392100 0.2 100662
07:00−5nw3491100 0.0 100768
10:00−5nw489199 0.0 1009226
13:00−2nw589019 0.0 1009385
16:00−1nw598718 0.0 1010726
19:00−4wnw478837 0.0 1011131
22:00−6wnw349036 0.0 101468
4 march, thu
thu401:00−8wnw34910 0.0 101547
04:00−9wnw34930 0.0 101646
07:00−11wsw23900 0.0 101635
10:00−6wsw5129012 0.0 1015447
13:00−1wsw7138678 0.0 1012817
16:00+1wsw7148489 0.0 1010981
19:00−1wsw6168389 0.0 1008780
22:00−1wsw7177956 0.0 1008577